Location: Biltmore Gardens
(41.6070°N, 83.4666°W)
Time: 15:17:00
(UTC+00:00)

Cosmos 1437 Rocket - Pass Details

Date: 14 July 2020
Orbit: 506 x 562 km, 81.2° (Epoch: 13 August)

Event Time Altitude Azimuth Distance (km) Brightness Sun altitude
Rises 06:53:07 0° 357° (N) 2,731 7.5 -24.6°
Reaches altitude 10° 06:55:24 10° 4° (N) 1,824 6.5 -24.4°
Maximum altitude 06:59:13 42° 76° (ENE) 780 3.7 -24.2°
Enters shadow 06:59:36 41° 92° (E) 795 3.7 -24.2°
